Date,TemperatureHighF,TemperatureAvgF,TemperatureLowF,DewpointHighF,DewpointAvgF,DewpointLowF,HumidityHigh,HumidityAvg,HumidityLow,PressureMaxIn,PressureMinIn,WindSpeedMaxMPH,WindSpeedAvgMPH,GustSpeedMaxMPH,PrecipitationSumIn
2013-3-1,31.6,27.8,25.0,29.0,24.8,22.0,93,88,84,30.13,29.99,12,6,0,0.00
2013-3-2,29.2,24.6,14.8,23.0,18.9,11.0,92,79,70,30.16,30.10,11,4,0,0.00
2013-3-3,32.6,22.9,11.4,17.0,14.0,9.0,93,70,52,30.13,30.03,3,0,0,0.00
2013-3-4,35.7,32.0,26.9,30.0,25.4,16.0,83,76,63,30.05,29.83,9,3,0,0.00
2013-3-5,35.4,31.9,27.8,32.0,30.1,27.0,96,93,79,29.95,29.74,7,1,0,0.09
2013-3-6,31.5,28.3,26.0,27.0,25.2,24.0,95,88,81,30.28,29.96,7,2,0,0.06
2013-3-7,35.7,30.2,26.3,28.0,25.1,23.0,89,81,70,30.37,30.28,4,1,0,0.03
2013-3-8,42.5,34.9,26.4,35.0,29.5,23.0,90,81,72,30.40,30.18,9,2,0,0.00
2013-3-9,49.6,41.5,35.4,42.0,36.4,31.0,89,82,70,30.18,29.73,9,3,0,0.03
2013-3-10,53.8,49.3,46.0,51.0,47.2,41.0,100,92,76,29.74,29.51,9,2,0,0.91
2013-3-11,48.8,37.0,31.6,48.0,35.3,28.0,97,93,87,29.83,29.53,11,4,0,0.02
2013-3-12,39.1,31.9,26.7,33.0,27.0,21.0,92,82,67,30.05,29.83,7,3,0,0.00
2013-3-13,35.5,28.2,23.4,23.0,20.4,19.0,91,74,53,30.32,30.05,11,4,0,0.00
2013-3-14,42.3,32.4,22.8,32.0,26.3,20.0,91,79,61,30.31,30.04,10,2,0,0.00
2013-3-15,54.1,42.3,30.8,45.0,37.0,29.0,93,82,63,30.02,29.59,6,1,0,0.00
2013-3-16,47.8,36.7,31.7,42.0,33.2,27.0,97,87,76,30.03,29.55,13,4,0,0.00
2013-3-17,38.5,33.7,30.0,30.0,27.3,24.0,84,78,68,30.10,29.83,10,3,0,0.00
2013-3-18,39.7,33.3,26.1,36.0,30.2,18.0,96,88,71,29.87,29.61,12,3,0,0.04
2013-3-19,40.0,29.7,20.6,21.0,17.0,13.0,76,61,36,30.09,29.85,10,3,0,0.00
2013-3-20,29.8,24.4,17.0,21.0,11.7,6.0,77,59,43,30.13,30.03,13,5,0,0.00
2013-3-21,34.8,24.3,13.4,16.0,12.1,9.0,84,62,41,30.06,29.95,11,1,0,0.00
2013-3-22,44.7,32.5,19.3,23.0,18.3,15.0,86,59,34,30.02,29.93,5,1,0,0.00
2013-3-23,47.4,38.6,31.8,27.0,24.3,22.0,74,58,42,30.02,29.87,11,3,0,0.00
2013-3-24,32.7,30.4,29.0,30.0,28.7,25.0,97,93,73,29.88,29.52,18,6,0,0.00
2013-3-25,32.9,29.9,26.7,31.0,28.5,26.0,97,94,84,30.06,29.65,13,5,0,0.13
2013-3-26,37.2,33.8,31.6,29.0,27.5,24.0,86,78,60,30.23,30.06,8,2,0,0.00
2013-3-27,42.7,35.4,28.4,30.0,26.2,21.0,88,71,47,30.30,30.23,5,1,0,0.00
2013-3-28,49.8,37.4,24.7,34.0,28.5,22.0,90,72,54,30.32,30.22,4,0,0,0.00
2013-3-29,55.7,46.4,36.6,37.0,33.3,30.0,79,62,41,30.23,30.14,8,1,0,0.00
2013-3-30,55.2,47.6,38.6,45.0,39.0,33.0,90,73,57,30.15,29.82,14,3,0,0.00
2013-3-31,60.8,50.1,41.0,48.0,40.9,30.0,96,74,43,29.84,29.70,13,3,0,0.00